This demonstration page uses our WeatherBlox Daily Observations layout. Learn more.

Left ArrowRight Arrow

36.19886, -115.1175

Hourly Observations for August 24, 2015

Temp ( °F °C ) Dew Point ( °F °C ) Humidity (%) Winds ( mph kmh ) Pressure ( in mb ) Visibility ( mi km ) Precip ( " mm )
12:53 am 00:53 Clear 86 30 31 -0.6 14 14 NW 6 9 29.88 1012 10 16 0.00 0.00
1:53 am 01:53 Clear 84 28.9 31 -0.6 15 15 NW 8 13 29.89 1012 10 16 0.00 0.00
2:53 am 02:53 Clear 84 28.9 29 -1.7 13 13 NW 6 9 29.89 1012 10 16 0.00 0.00
3:53 am 03:53 Clear 81 27.2 33 0.6 18 18 NW 5 7 29.90 1013 10 16 0.00 0.00
4:53 am 04:53 Clear 80 26.7 33 0.6 18 18 NNW 6 9 29.91 1013 10 16 0.00 0.00
5:53 am 05:53 Clear 79 26.1 34 1.1 20 20 NNW 3 6 29.92 1013 10 16 0.00 0.00
6:53 am 06:53 Sunny 80 26.7 33 0.6 18 18 W 5 7 29.95 1014 10 16 0.00 0.00
7:53 am 07:53 Sunny 85 29.4 37 2.8 18 18 NNW 6 9 29.96 1015 10 16 0.00 0.00
8:53 am 08:53 Sunny 90 32.2 38 3.3 16 16 E 6 9 29.96 1015 10 16 0.00 0.00
9:53 am 09:53 Sunny 93 33.9 38 3.3 14 14 VRB 6 9 29.96 1015 10 16 0.00 0.00
10:53 am 10:53 Sunny 96 35.6 37 2.8 13 13 SE 8 13 29.96 1015 10 16 0.00 0.00
11:53 am 11:53 Sunny 99 37.2 41 5 14 14 ESE 8 13 29.95 1014 10 16 0.00 0.00
12:53 pm 12:53 Sunny 102 38.9 40 4.4 12 12 S 7 11 29.91 1013 10 16 0.00 0.00
1:53 pm 13:53 Sunny 103 39.4 41 5 12 12 SE 8 13 29.89 1012 10 16 0.00 0.00
2:53 pm 14:53 Sunny 104 40 41 5 12 12 ESE 15 24 29.86 1011 10 16 0.00 0.00
3:53 pm 15:53 Sunny 106 41.1 41 5 11 11 S 12 19 29.83 1010 10 16 0.00 0.00
4:53 pm 16:53 Sunny 105 40.6 40 4.4 11 11 SE 13 20 29.82 1010 10 16 0.00 0.00
5:53 pm 17:53 Sunny 104 40 40 4.4 11 11 SE 13 20 29.81 1009 10 16 0.00 0.00
6:53 pm 18:53 Sunny 103 39.4 40 4.4 11 11 SSE 9 15 29.80 1009 10 16 0.00 0.00
7:53 pm 19:53 Clear 100 37.8 42 5.6 14 14 SW 6 9 29.82 1010 10 16 0.00 0.00
8:53 pm 20:53 Clear 98 36.7 33 0.6 10 10 SW 6 9 29.83 1010 10 16 0.00 0.00
9:53 pm 21:53 Clear 96 35.6 32 0 10 10 W 5 7 29.84 1011 10 16 0.00 0.00
10:53 pm 22:53 Clear 95 35 35 1.7 12 12 VRB 3 6 29.85 1011 10 16 0.00 0.00
11:53 pm 23:53 Clear 92 33.3 34 1.1 13 13 Calm 29.85 1011 10 16 0.00 0.00

Powered by AerisWeather